Regional Weather Roundup
Issued by NWS

Home | Current Version | Previous Version | Text Only | Print | Product List | Glossary On
Versions: 1 2 3 4 5 6 7 8 9 10 11 12 13 14 15 16 17 18 19 20 21 22 23 24 25 26 27 28 29 30 31 32 33 34 35 36 37 38 39 40 41 42 43 44 45 46 47 48 49 50
000
ASCA44 KEWX 052120
RWRMX

LATIN AMERICA AND CARIBBEAN REGIONAL WEATHER ROUNDUP
NATIONAL WEATHER SERVICE AUSTIN/SAN ANTONIO TX
400 PM CDT SUN JUL 05 2015

NOTE: "FAIR" INDICATED FEW OR NO CLOUDS BELOW 12,000 FEET WITH NO
SIGNIFICANT WEATHER AND/OR OBSTRUCTIONS TO VISIBILITY.

BAJA CALIFORNIA

CITY           SKY/WX    TMP DP  RH WIND       PRES   REMARKS
LORETO         MOSUNNY   91  77  62 SE12      29.84F HX 105
LA PAZ         PTSUNNY   95  50  21 N7        29.88F HX  92
MEXICALI       SUNNY     99  55  23 SE17      29.80F HX  97
S.J. DEL CABO  PTSUNNY   90  64  43 E7        29.92S HX  91
TIJUANA        MOSUNNY   72  57  60 NW7       30.01F

NORTHWESTERN MEXICO

CITY           SKY/WX    TMP DP  RH WIND       PRES   REMARKS
CULIACAN       PTSUNNY   97  79  56 S14       29.92F HX 115
DURANGO        PTSUNNY   79  55  44 SE7       30.23F
GUAYMAS        MOSUNNY   93  81  66 S12       29.82F HX 113
HERMOSILLO     PTSUNNY   99  68  36 SE7       29.89F HX 104
CD. JUAREZ     MOSUNNY   93  66  40 W12       29.98F HX  96
LOS MOCHIS     MOSUNNY   91  68  46 S14       29.90F HX  95
OBREGON        MOSUNNY   95  72  46 W10       29.85F HX 103

NORTHEASTERN MEXICO

CITY           SKY/WX    TMP DP  RH WIND       PRES   REMARKS
CHIHUAHUA      PTSUNNY   90  55  31 E5        30.06F
MATAMOROS      PTSUNNY   91  79  66 SE23      30.01F HX 107
MONCLOVA       MOSUNNY   95  70  43 NE7       29.92F HX 101
MONTERREY      MOSUNNY   88  70  55 SE18      29.96F HX  92
NUEVO LAREDO   PTSUNNY   95  70  43 SE12      29.91F HX 101
PIEDRAS NEGRAS MOSUNNY   93  73  52 SE9       29.94F HX 102
REYNOSA        PTSUNNY   91  70  49 E12       29.96S HX  97
SALTILLO       PTSUNNY   86  61  42 N12       30.16F
TORREON        PTSUNNY   95  61  31 SE7         N/A  HX  95
CD. VICTORIA   PTSUNNY   88  66  48 SE21      30.00F HX  90

WESTERN MEXICO

CITY           SKY/WX    TMP DP  RH WIND       PRES   REMARKS
AGUASCALIENTES MOSUNNY   73  50  43 SW10      30.27F
COLIMA         MOSUNNY   88  66  48 S9        30.00F HX  90
DEL BAJIO      PTSUNNY   73  54  49 SE3       30.30F
GUADALAJARA    MOSUNNY   81  57  44 W9        30.18F
MANZANILLO     MOSUNNY   90  79  70 W17       29.83F HX 105
MAZATLAN       MOSUNNY   90  73  58 SW14      29.88F HX  98
P. VALLARTA    MOSUNNY   90  77  66 SW16      29.90F HX 102
URUAPAN        PTSUNNY   75  66  73 S12       30.20F THUNDER
ZACATECAS      PTSUNNY   64  52  63 SW12      30.31S

CENTRAL MEXICO

CITY           SKY/WX    TMP DP  RH WIND       PRES   REMARKS
CUERNAVACA     PTSUNNY   79  57  47 SW6       30.15F
MEXICO CITY    PTSUNNY   73  48  40 NE7       30.32F
MORELIA          N/A    N/A N/A N/A MISG        N/A
POZA RICA      MOSUNNY   93  75  55 E12       29.97F HX 104
PUEBLA         PTSUNNY   72  52  49 S12       30.33F
QUERETARO      PTSUNNY   75  59  57 NE9       30.30F
S. LUIS POTOSI PTSUNNY   77  54  44 E8        30.24F
TAMPICO        PTSUNNY   88  75  66 SE12      30.00F HX  97
TOLUCA         PTSUNNY   72  48  43 NW2       30.40F

SOUTHERN MEXICO

CITY           SKY/WX    TMP DP  RH WIND       PRES   REMARKS
ACAPULCO       PTSUNNY   90  81  74 SW9       29.84F HX 108
B. DE HUATULCO CLOUDY    93  77  59 CALM      29.92F HX 107
OAXACA         PTSUNNY   81  54  39 W8        30.19F
P. ESCONDIDO   MOSUNNY   86  75  70 CALM      29.96S HX  95
VERACRUZ       PTSUNNY   88  72  58 E6        29.98F HX  94
ZIHUATANEJO    MOSUNNY   95  77  55 SW12      29.83F HX 109

YUCATAN PENINSULA

CITY           SKY/WX    TMP DP  RH WIND       PRES   REMARKS
CAMPECHE       MOSUNNY   97  68  38 E12G23    29.91F HX 101
CANCUN         MOSUNNY   90  77  66 NE8       30.05F HX 102
CHETUMAL       MOSUNNY   88  77  70 SE16      29.91F HX 100
CD. DEL CARMEN MOSUNNY   86  77  74 N16       29.92F HX  97
COZUMEL        PTSUNNY   82  77  83 CALM      30.05S HX  91
MERIDA         PTSUNNY   99  70  39 SE14      29.97F HX 105
MINATITLAN     MOSUNNY   84  68  58 N12       29.90R
TAPACHULA      PTSUNNY   88  79  74 W7        29.85F HX 102
TUX. GUTIERREZ MOSUNNY   88  64  45 SE6       29.93F
VILLAHERMOSA   MOSUNNY   93  72  49 E15       29.92F HX 100

CENTRAL AMERICA

CITY           SKY/WX    TMP DP  RH WIND       PRES   REMARKS
BELIZE CITY    MOSUNNY   86  81  84 E9G21     29.98S HX 102
MANAGUA        PTCLDY    91  75  59 E21       29.80S HX 102

CARIBBEAN

CITY           SKY/WX    TMP DP  RH WIND       PRES   REMARKS
ARUBA          MOSUNNY   86  79  79 E23G36    29.89S HX  99
CURACAO        MOSUNNY   84  75  74 E13       29.92S HX  92
KINGSTON         N/A     91  72  52 SE28      29.92  HX  98
SAN JUAN       PTSUNNY   84  75  74 NE16      30.07S HX  92
SANTO DOMINGO  MOSUNNY   90  73  58 S7        30.00F HX  98
ST. CROIX      PTSUNNY   86  73  66 NE16      30.04F HX  93
ST. MAARTEN    MOSUNNY   84  72  65 E16       30.03S
ST. THOMAS     MOSUNNY   88  73  62 NE17G26   30.04  HX  96

$$




USA.gov is the U.S. government's official web portal to all federal, state and local government web resources and services.